Greybull, WY

10:35 AM MST on December 11, 2019 (GMT -0700)
South Big Horn County

Weather History for KGEY - October, 2019

Change the Weather History Date:

Monday, October 7, 2019

  Actual Average Record
Temperature  
Mean Temperature 49 °F 49 °F  
Max Temperature 66 °F 64 °F 81 °F (2003)
Min Temperature 32 °F 35 °F 19 °F (2000)
Degree Days  
Heating Degree Days 16 16  
Month to date heating degree days 146 101  
Since 1 July heating degree days 321 332  
Cooling Degree Days 0 0  
Month to date cooling degree days 0 0  
Year to date cooling degree days 733 669  
Moisture  
Dew Point 32 °F    
Average Humidity 56    
Maximum Humidity 89    
Minimum Humidity 22    
Precipitation  
Precipitation 0.00 in 0.02 in 1.83 in (2011)
Month to date precipitation 0.25 0.18  
Year to date precipitation 7.57 6.51  
Sea Level Pressure  
Sea Level Pressure 30.07 in    
Wind  
Wind Speed 5 mph (SE)    
Max Wind Speed 10 mph    
Max Gust Speed 15 mph    
Visibility 10 miles    
Events      
T = Trace of Precipitation, MM = Missing Value Source: NWS Daily Summary

Daily Weather History Graph

Daily Weather History Graph

Search for Another Location

Airport or City:

Astronomy

Oct. 07, 2019 Rise Set
Actual Time 7:17 AM MDT 6:42 PM MDT
Civil Twilight 6:48 AM MDT 7:11 PM MDT
Nautical Twilight 6:14 AM MDT 7:44 PM MDT
Astronomical Twilight 5:40 AM MDT 8:18 PM MDT
Moon 4:22 PM MDT (10/7) 12:55 AM MDT (10/7)
Length of Visible Light 12h 23m
Length of Day
11h 24m
Waxing Gibbous, 69% of the Moon is Illuminated
Oct 7
Waxing Gibbous
Oct 13
Full
Oct 21
Last Quarter
Oct 27
New
Nov 4
First Quarter

Hourly Weather History & Observations

Time (MDT) Temp. Windchill Dew Point Humidity Pressure Visibility Wind Dir Wind Speed Gust Speed Precip Events Conditions
12:53 AM 37.9 °F - 30.9 °F 76% 30.27 in 10.0 mi Calm Calm - N/A   Clear
1:53 AM 37.9 °F 33.5 °F 30.9 °F 76% 30.26 in 10.0 mi SE 5.8 mph - N/A   Clear
2:53 AM 35.1 °F 31.0 °F 30.9 °F 85% 30.25 in 10.0 mi SE 4.6 mph - N/A   Clear
3:53 AM 36.0 °F 33.3 °F 30.9 °F 82% 30.23 in 10.0 mi SE 3.5 mph - N/A   Clear
4:53 AM 35.1 °F - 30.9 °F 85% 30.23 in 10.0 mi Calm Calm - N/A   Clear
5:53 AM 33.1 °F 30.0 °F 30.9 °F 92% 30.22 in 10.0 mi SSE 3.5 mph - N/A   Clear
6:53 AM 33.1 °F 30.0 °F 30.0 °F 89% 30.23 in 10.0 mi East 3.5 mph - N/A   Clear
7:53 AM 34.0 °F 31.0 °F 30.0 °F 85% 30.22 in 10.0 mi SSE 3.5 mph - N/A   Clear
8:53 AM 37.9 °F - 32.0 °F 79% 30.22 in 10.0 mi Calm Calm - N/A   Clear
9:53 AM 42.1 °F 40.2 °F 32.0 °F 67% 30.19 in 10.0 mi ESE 3.5 mph - N/A   Clear
10:53 AM 48.0 °F - 35.1 °F 61% 30.15 in 10.0 mi ESE 4.6 mph - N/A   Clear
11:53 AM 54.0 °F - 32.0 °F 43% 30.10 in 10.0 mi SSE 8.1 mph - N/A   Clear
12:53 PM 59.0 °F - 32.0 °F 36% 30.05 in 10.0 mi SE 6.9 mph - N/A   Clear
1:53 PM 61.0 °F - 30.9 °F 32% 30.00 in 10.0 mi South 6.9 mph - N/A   Clear
2:53 PM 64.0 °F - 30.0 °F 28% 29.96 in 10.0 mi South 8.1 mph - N/A   Clear
3:53 PM 66.0 °F - 27.0 °F 23% 29.93 in 10.0 mi SE 6.9 mph - N/A   Clear
4:53 PM 66.0 °F - 26.1 °F 22% 29.91 in 10.0 mi SSE 8.1 mph - N/A   Clear
5:53 PM 62.1 °F - 30.9 °F 31% 29.90 in 10.0 mi SSW 4.6 mph - N/A   Clear
6:53 PM 57.0 °F - 36.0 °F 45% 29.91 in 10.0 mi NNE 6.9 mph - N/A   Clear
7:53 PM 53.1 °F - 36.0 °F 52% 29.91 in 10.0 mi ESE 4.6 mph - N/A   Clear
8:53 PM 53.1 °F - 33.1 °F 47% 29.90 in 10.0 mi ESE 3.5 mph - N/A   Clear
9:53 PM 48.0 °F - 34.0 °F 58% 29.90 in 10.0 mi ESE 4.6 mph - N/A   Clear
10:53 PM 46.9 °F - 34.0 °F 61% 29.88 in 10.0 mi North - - N/A   Clear
11:53 PM 43.0 °F 39.5 °F 35.1 °F 74% 29.87 in 10.0 mi SE 5.8 mph - N/A   Clear